EDT,Max TemperatureF,Mean TemperatureF,Min TemperatureF,Max Dew PointF,MeanDew PointF,Min DewpointF,Max Humidity, Mean Humidity, Min Humidity, Max Sea Level PressureIn, Mean Sea Level PressureIn, Min Sea Level PressureIn, Max VisibilityMiles, Mean VisibilityMiles, Min VisibilityMiles, Max Wind SpeedMPH, Mean Wind SpeedMPH, Max Gust SpeedMPH,PrecipitationIn, CloudCover, Events, WindDirDegrees
2013-7-1,80,71,64,71,68,64,100,92,71,30.10,30.02,29.94,10,8,0,8,1,,0.13,6,Fog-Rain,108
2013-7-2,70,64,59,70,61,57,100,94,88,30.24,30.19,30.08,10,9,4,9,5,,0.47,8,Rain,32
2013-7-3,88,74,60,73,65,59,100,85,59,30.22,30.16,30.08,10,10,8,8,1,16,0.01,5,Rain,317
2013-7-4,91,80,70,72,70,68,97,74,52,30.17,30.12,30.06,10,10,10,10,2,,0.00,1,,219
2013-7-5,91,80,68,72,69,65,96,69,50,30.13,30.07,30.01,10,10,10,12,3,18,0.00,1,,239
2013-7-6,90,78,64,70,66,58,93,68,46,30.05,30.01,29.96,10,10,10,12,3,20,0.00,1,,264
2013-7-7,88,75,64,72,65,59,93,75,53,30.00,29.96,29.92,10,10,10,8,2,,0.00,1,,237
2013-7-8,75,70,66,70,68,64,100,93,79,30.09,30.01,29.92,10,9,2,9,2,,0.56,8,Rain,68
2013-7-9,75,70,66,67,66,64,100,93,73,30.13,30.10,30.08,10,9,1,7,1,,0.10,8,Rain,123
2013-7-10,68,66,64,66,65,62,100,96,90,30.08,29.91,29.79,10,8,1,6,3,,0.97,8,Rain,123
2013-7-11,82,72,61,70,66,58,100,89,57,30.00,29.82,29.76,10,7,1,6,1,,0.00,7,Rain,342
2013-7-12,82,68,55,63,58,54,100,75,44,30.24,30.14,30.01,10,10,10,6,2,,0.01,0,,49
2013-7-13,84,68,53,66,59,54,100,86,44,30.33,30.29,30.25,10,6,0,10,1,,0.00,3,Fog,180
2013-7-14,88,75,63,71,67,62,97,76,53,30.30,30.26,30.19,10,10,10,6,1,,0.00,3,,216
2013-7-15,93,78,64,69,66,63,100,70,39,30.21,30.16,30.09,10,10,9,6,1,,0.00,1,,295
2013-7-16,91,77,64,73,66,63,97,71,42,30.19,30.15,30.13,10,10,10,7,1,,0.00,2,,353
2013-7-17,93,78,64,70,68,63,97,75,46,30.18,30.08,29.96,10,10,10,8,2,,0.16,2,Rain-Thunderstorm,222
2013-7-18,90,78,68,73,70,66,96,80,52,30.02,29.98,29.95,10,10,9,15,4,18,0.07,3,Rain-Thunderstorm,187
2013-7-19,93,82,71,73,70,64,100,76,48,29.95,29.80,29.65,10,10,9,14,3,28,0.07,2,Rain,232
2013-7-20,89,80,69,68,65,55,84,64,49,29.81,29.68,29.63,10,10,10,10,6,21,0.00,1,,243
2013-7-21,82,69,59,62,59,57,96,73,54,30.03,29.94,29.83,10,10,10,10,2,,0.00,2,,124
2013-7-22,73,64,57,66,61,56,100,88,68,30.06,30.02,29.94,10,9,1,6,1,,0.05,6,Rain,82
2013-7-23,72,65,59,66,62,57,100,92,83,29.92,29.69,29.57,10,9,2,6,1,,2.04,7,Rain,353
2013-7-24,81,66,50,68,61,48,100,82,48,30.01,29.69,29.59,10,8,1,13,2,21,0.01,4,,304
2013-7-25,75,58,44,60,49,44,100,83,48,30.14,30.08,30.01,10,7,1,6,1,,0.00,3,,251
2013-7-26,75,68,62,63,60,57,93,80,60,30.11,30.02,29.95,10,10,10,10,3,18,0.04,7,Rain,347
2013-7-27,86,72,59,62,60,56,93,69,39,30.02,30.00,29.95,10,10,10,7,2,,0.00,0,,208
2013-7-28,79,66,55,67,62,55,100,87,61,30.05,30.03,30.02,10,9,1,13,1,17,0.03,7,Rain,120
2013-7-29,82,71,61,67,64,60,100,89,54,30.07,30.03,29.97,10,10,4,10,3,16,0.19,7,Rain-Thunderstorm,141
2013-7-30,80,70,60,63,57,49,100,73,36,30.10,30.06,30.03,10,9,1,10,2,18,0.00,4,,283
2013-7-31,82,66,53,61,56,51,96,69,40,30.14,30.08,30.04,10,10,10,6,1,,0.00,1,,204